Date,TemperatureHighF,TemperatureAvgF,TemperatureLowF,DewpointHighF,DewpointAvgF,DewpointLowF,HumidityHigh,HumidityAvg,HumidityLow,PressureMaxIn,PressureMinIn,WindSpeedMaxMPH,WindSpeedAvgMPH,GustSpeedMaxMPH,PrecipitationSumIn
2013-1-1,46,43,40,46,43,40,100,100,100,30.20,30.14,13,4,0,0.00
2013-1-2,53,44,39,53,44,39,100,100,100,30.33,30.17,7,1,0,0.01
2013-1-3,49,46,42,49,46,42,100,100,100,30.42,30.33,4,1,0,0.00
2013-1-4,49,44,38,49,44,38,100,100,100,30.34,30.02,11,2,0,0.01
2013-1-5,48,44,40,49,44,40,100,100,100,30.01,29.78,7,2,0,0.04
2013-1-6,42,39,37,43,39,37,100,100,100,29.87,29.76,19,6,0,0.03
2013-1-7,38,34,32,38,34,32,100,100,100,30.02,29.80,16,4,0,0.10
2013-1-8,32,29,28,32,28,25,100,97,81,30.15,30.03,18,6,0,0.00
2013-1-9,32,30,28,29,26,22,97,84,72,30.23,30.12,13,4,0,0.01
2013-1-10,40,34,28,40,27,22,100,75,66,30.22,30.03,16,4,0,0.09
2013-1-11,47,44,40,47,43,39,100,95,77,30.02,29.85,19,7,0,0.23
2013-1-12,51,46,38,51,46,38,100,100,100,30.02,29.83,13,4,0,0.57
2013-1-13,39,38,37,39,38,37,100,100,100,30.31,30.03,7,3,0,0.07
2013-1-14,49,42,36,49,42,36,100,100,100,30.36,30.30,5,1,0,0.01
2013-1-15,56,49,41,56,49,41,100,100,100,30.31,30.12,11,3,0,0.00
2013-1-16,60,52,46,60,52,46,100,100,100,30.12,29.73,21,6,0,0.16
2013-1-17,57,51,46,57,51,46,100,100,100,29.81,29.60,17,6,0,0.10
2013-1-18,58,55,50,58,55,50,100,100,100,29.79,29.51,14,4,0,0.06
2013-1-19,54,48,45,50,45,41,100,88,64,29.78,29.51,16,7,0,0.23
2013-1-20,58,53,47,58,49,42,100,88,69,29.93,29.79,14,6,0,0.01
2013-1-21,63,58,54,63,56,44,100,94,59,29.92,29.75,13,4,0,0.00
2013-1-22,61,57,53,61,57,53,100,100,100,29.76,29.66,21,6,0,0.09
2013-1-23,56,54,51,55,50,41,100,86,62,29.95,29.75,18,5,0,0.07
2013-1-24,59,53,48,47,44,42,89,73,56,29.95,29.62,13,3,0,0.01
2013-1-25,57,51,41,55,47,41,100,86,59,29.78,29.56,19,6,0,0.25
2013-1-26,44,43,40,44,43,40,100,100,100,29.77,29.67,18,8,0,0.10
2013-1-27,44,37,33,44,37,33,100,100,100,29.99,29.74,20,8,0,0.18
2013-1-28,38,36,34,38,36,34,100,100,100,30.06,29.94,8,-7,0,0.04
2013-1-29,37,36,35,37,36,35,100,100,100,30.14,30.06,11,2,0,0.04
2013-1-30,42,37,32,42,37,33,100,100,100,30.11,30.00,7,1,0,0.01
2013-1-31,44,39,34,44,39,34,100,100,90,30.01,29.83,12,3,0,0.39
2013-2-1,48,44,38,49,44,38,100,100,100,30.00,29.88,14,4,0,0.00
2013-2-2,55,49,44,55,46,36,100,91,58,29.90,29.75,16,5,0,0.00
2013-2-3,67,62,55,67,62,55,100,100,100,29.89,29.77,22,10,0,0.00
2013-2-4,63,56,46,63,56,46,100,100,100,30.03,29.89,14,4,0,0.00
2013-2-5,51,45,42,51,45,42,100,100,100,30.11,29.86,14,5,0,0.17
2013-2-6,55,48,42,55,48,42,100,100,100,29.86,29.69,10,2,0,0.00
2013-2-7,63,56,52,63,56,52,100,100,100,29.75,29.65,18,4,0,0.04
2013-2-8,58,51,48,58,49,44,100,92,79,29.74,29.61,24,5,0,0.25
2013-2-9,55,50,46,53,47,44,100,92,68,29.94,29.74,14,3,0,0.31
2013-2-10,52,48,45,51,47,45,100,98,90,29.94,29.82,11,2,0,0.20
2013-2-11,47,43,40,47,43,40,100,100,98,30.05,29.80,13,4,0,0.02
2013-2-12,52,46,38,52,45,38,100,98,89,30.15,30.05,12,2,0,0.00
2013-2-13,58,49,42,57,42,36,100,80,48,30.11,30.03,7,1,0,0.00
2013-2-14,50,45,43,45,43,37,100,93,62,30.03,29.80,15,7,0,0.00
2013-2-15,44,42,38,45,42,38,100,100,100,30.04,29.74,24,8,0,0.42
2013-2-16,39,38,36,39,38,37,100,100,100,30.16,30.04,12,3,0,0.00
2013-2-17,40,38,37,40,38,37,100,100,100,30.15,30.10,14,5,0,0.00
2013-2-18,43,39,37,43,40,37,100,100,100,30.14,30.09,11,5,0,0.00
2013-2-19,49,40,35,49,40,35,100,100,100,30.12,29.81,14,5,0,0.06
2013-2-20,42,40,38,42,40,38,100,100,100,30.12,29.78,12,3,0,0.05
2013-2-21,49,42,37,49,42,37,100,100,100,30.12,29.95,7,1,0,0.00
2013-2-22,50,46,42,50,46,42,100,100,100,29.97,29.69,9,2,0,0.10
2013-2-23,52,47,45,52,47,45,100,100,100,30.12,29.70,6,1,0,0.00
2013-2-24,56,46,42,56,46,42,100,100,100,30.22,30.12,11,2,0,0.01
2013-2-25,52,44,40,52,44,40,100,100,100,30.23,30.14,19,5,0,0.01
2013-2-26,45,43,42,45,44,42,100,100,100,30.15,30.04,14,6,0,0.09
2013-2-27,48,44,41,48,44,41,100,100,100,30.05,30.01,16,4,0,0.00
2013-2-28,43,41,38,43,41,38,100,100,100,30.22,30.05,16,6,0,0.10
2013-3-1,49,41,35,42,37,34,100,85,60,30.19,30.00,7,1,0,0.01
2013-3-2,54,46,41,54,44,26,100,96,37,30.11,29.96,12,4,0,0.00
2013-3-3,46,42,38,46,42,38,100,100,100,30.12,29.92,24,10,0,0.00
2013-3-4,38,38,37,39,38,37,100,100,100,29.97,29.95,7,2,0,0.00
2013-3-5,41,38,34,41,38,34,100,100,100,30.49,30.40,17,7,0,0.00
2013-3-6,55,43,32,55,43,32,100,100,100,30.49,30.14,7,1,0,0.00
2013-3-7,59,54,48,59,54,48,100,100,100,30.14,29.94,13,3,0,0.00
2013-3-8,62,56,51,62,56,51,100,100,100,29.94,29.80,12,4,0,0.05
2013-3-9,62,56,51,62,56,51,100,100,100,29.82,29.73,14,5,0,0.04
2013-3-10,65,58,52,65,58,53,100,100,100,29.73,29.65,17,5,0,0.00
2013-3-11,66,60,55,66,60,55,100,100,100,29.69,29.53,13,4,0,0.01
2013-3-12,67,59,53,67,59,53,100,100,100,29.60,29.51,13,4,0,0.06
2013-3-13,66,59,52,66,59,52,100,100,100,29.74,29.60,16,5,0,0.00
2013-3-14,72,64,56,73,65,56,100,100,100,29.73,29.32,17,5,0,0.00
2013-3-15,67,57,49,67,57,49,100,100,100,29.58,29.30,26,6,0,0.48
2013-3-16,49,37,32,49,37,32,100,100,100,30.02,29.56,21,9,0,0.54
2013-3-17,39,37,35,39,37,35,100,100,95,30.22,30.02,14,3,0,0.03
2013-3-18,52,42,33,52,41,33,100,99,63,30.24,29.92,8,1,0,0.01
2013-3-19,62,54,45,61,48,41,100,83,47,29.92,29.70,17,6,0,0.00
2013-3-20,59,54,48,59,53,45,100,96,72,29.96,29.80,12,3,0,0.00
2013-3-21,71,62,53,71,61,46,100,98,45,29.92,29.50,14,3,0,0.00
2013-3-22,64,50,40,64,50,40,100,100,89,29.58,29.42,17,4,0,0.39
2013-3-23,50,43,39,50,43,39,100,100,100,29.97,29.59,14,5,0,0.01
2013-3-24,59,48,39,59,48,39,100,100,100,30.08,29.97,10,1,0,0.00
2013-3-25,49,45,43,49,45,43,100,100,100,30.03,29.70,19,8,0,0.00
2013-3-26,65,51,44,64,48,44,100,92,52,29.72,29.53,14,4,0,0.11
2013-3-27,46,44,43,46,44,43,100,100,100,29.88,29.60,13,4,0,0.42
2013-3-28,44,43,42,44,43,42,100,100,100,30.18,29.88,14,7,0,0.02
2013-3-29,53,45,40,53,45,40,100,100,100,30.18,30.02,14,5,0,0.02
2013-3-30,74,60,44,74,58,44,100,95,48,30.02,29.86,8,2,0,0.00
2013-3-31,80,71,62,78,51,44,100,55,29,29.86,29.72,13,4,0,0.00
2013-4-1,71,64,60,71,64,60,100,100,100,29.80,29.71,14,3,0,0.01
2013-4-2,71,62,54,70,51,36,100,75,31,29.89,29.77,10,3,0,0.00
2013-4-3,72,63,56,58,50,42,100,66,42,29.77,29.52,14,3,0,0.27
2013-4-4,66,58,54,57,54,51,100,87,65,29.90,29.60,13,4,0,0.02
2013-4-5,70,61,53,53,50,43,97,70,39,29.98,29.77,14,3,0,0.00
2013-4-6,76,68,62,76,57,44,100,71,36,29.83,29.74,12,3,0,0.00
2013-4-7,65,57,48,65,51,48,100,82,54,29.82,29.49,25,7,0,0.03
2013-4-8,49,45,42,49,46,43,100,100,100,29.92,29.55,17,8,0,0.69
2013-4-9,47,44,42,46,44,42,100,97,90,30.00,29.91,10,4,0,0.02
2013-4-10,62,52,45,62,51,45,100,97,69,30.01,29.91,8,2,0,0.01
2013-4-11,59,54,51,59,52,49,100,92,78,30.05,29.90,9,2,0,0.01
2013-4-12,71,60,50,68,47,30,100,68,27,30.09,30.03,11,2,0,0.00
2013-4-13,74,64,55,74,57,43,100,82,35,30.09,30.01,10,2,0,0.00
2013-4-14,64,55,49,60,52,45,100,93,51,30.16,30.04,13,5,0,0.03
2013-4-15,50,48,47,50,48,47,100,100,100,30.13,29.98,22,10,0,0.10
2013-4-16,48,47,45,48,47,45,100,100,100,30.00,29.91,16,7,0,0.07
2013-4-17,50,48,46,48,45,42,100,92,76,30.13,30.00,21,8,0,0.00
2013-4-18,53,48,45,47,45,37,100,90,57,30.11,30.04,20,7,0,0.00
2013-4-19,52,48,43,52,48,43,100,100,100,30.03,29.96,20,7,0,0.00
2013-4-20,53,49,46,53,49,46,100,100,100,30.01,29.93,12,5,0,0.00
2013-4-21,59,51,46,59,50,46,100,98,69,30.00,29.92,11,3,0,0.02
2013-4-22,60,51,46,60,51,46,100,100,96,30.15,29.97,16,4,0,0.00
2013-4-23,58,51,43,58,50,39,100,97,58,30.25,30.15,12,3,0,0.01
2013-4-24,75,61,46,72,50,38,100,72,30,30.34,30.25,5,1,0,0.00
2013-4-25,78,70,57,71,52,45,100,58,32,30.29,30.16,6,1,0,0.00
2013-4-26,82,69,58,79,51,42,100,59,31,30.17,30.02,13,2,0,0.00
2013-4-27,84,71,56,84,64,44,100,84,26,30.02,29.91,6,1,0,0.00
2013-4-28,83,73,61,83,65,44,100,80,39,30.06,29.94,21,2,0,0.00
2013-4-29,84,70,60,78,54,48,100,61,31,30.16,30.06,10,2,0,0.00
2013-4-30,69,61,55,63,58,55,100,91,74,30.19,30.12,17,5,0,0.00
2013-5-1,69,60,54,69,59,54,100,97,75,30.12,30.03,18,7,0,0.00
2013-5-2,67,59,54,65,58,54,100,96,81,30.05,29.98,16,8,0,0.00
2013-5-3,61,57,54,59,56,54,100,98,91,29.98,29.89,17,7,0,0.01
2013-5-4,75,61,53,75,61,53,100,100,100,29.96,29.88,10,2,0,0.00
2013-5-5,70,62,54,70,62,55,100,100,100,30.09,29.95,15,4,0,0.00
2013-5-6,68,61,57,68,61,57,100,100,100,30.16,30.09,17,7,0,0.00
2013-5-7,62,59,57,62,59,57,100,100,100,30.10,29.98,26,9,0,0.00
2013-5-8,63,59,56,63,59,57,100,100,100,29.98,29.89,25,12,0,0.01
2013-5-9,59,57,56,59,57,56,100,100,100,29.95,29.90,14,6,0,0.00
2013-5-10,65,58,54,65,59,55,100,100,100,29.94,29.87,11,5,0,0.00
2013-5-11,71,60,54,71,60,54,100,100,100,29.87,29.73,10,2,0,0.00
2013-5-12,75,65,54,75,65,54,100,100,100,29.74,29.64,11,1,0,0.00
2013-5-13,74,66,61,74,66,61,100,100,100,29.69,29.61,10,3,0,0.08
2013-5-14,62,61,60,62,61,60,100,100,100,29.80,29.64,14,3,0,0.01
2013-5-15,69,62,58,69,62,58,100,100,100,29.88,29.79,6,2,0,1.16
2013-5-16,79,72,60,79,69,49,100,92,46,29.92,29.87,10,3,0,0.00
2013-5-17,83,73,63,83,71,51,100,95,53,29.91,29.82,8,2,0,0.02
2013-5-18,82,75,66,82,73,61,100,94,62,29.97,29.87,7,2,0,0.00
2013-5-19,81,73,65,80,69,57,100,90,45,29.97,29.92,13,2,0,0.00
2013-5-20,80,71,63,80,69,56,100,94,62,29.97,29.92,14,3,0,0.00
2013-5-21,77,70,64,68,60,54,100,74,47,29.97,29.91,17,4,0,0.00
2013-5-22,90,77,62,90,76,59,100,97,45,29.92,29.76,6,1,0,0.00
2013-5-23,92,81,71,92,78,50,100,92,36,29.76,29.54,24,6,0,0.02
2013-5-24,78,74,69,75,58,47,100,63,40,29.84,29.63,20,6,0,0.00
2013-5-25,82,74,64,82,70,52,100,91,39,29.89,29.82,14,4,0,0.00
2013-5-26,84,74,64,84,74,55,100,99,45,29.89,29.78,15,4,0,0.00
2013-5-27,71,65,60,71,65,60,100,100,100,29.96,29.80,14,5,0,0.00
2013-5-28,79,70,60,79,70,60,100,100,100,29.98,29.91,8,2,0,0.00
2013-5-29,77,71,64,77,71,64,100,100,100,29.92,29.62,17,5,0,0.00
2013-5-30,84,73,62,85,73,62,100,100,100,29.68,29.62,16,2,0,0.00
2013-5-31,86,77,68,86,73,46,100,91,36,29.72,29.58,22,6,0,0.00
2013-6-1,82,72,61,74,57,46,100,66,30,29.82,29.72,15,3,0,0.00
2013-6-2,69,65,62,68,63,56,100,96,65,29.81,29.62,9,2,0,0.14
2013-6-3,75,67,57,75,67,57,100,100,100,29.86,29.71,16,4,0,0.00
2013-6-4,76,67,60,74,63,54,100,88,50,29.90,29.84,15,3,0,0.00
2013-6-5,78,68,61,74,62,55,100,85,47,29.96,29.88,11,2,0,0.08
2013-6-6,78,68,63,74,61,54,100,80,51,30.00,29.96,13,2,0,0.00
2013-6-7,81,70,62,81,66,57,100,86,48,29.99,29.90,10,2,0,0.00
2013-6-8,72,68,62,72,68,62,100,100,100,29.89,29.82,15,7,0,0.00
2013-6-9,72,67,63,72,67,63,100,100,100,29.96,29.86,17,6,0,0.00
2013-6-10,80,71,62,80,71,62,100,100,100,29.97,29.86,14,3,0,0.00
2013-6-11,83,73,63,83,73,63,100,100,100,29.89,29.71,13,4,0,0.00
2013-6-12,72,68,64,72,68,65,100,100,100,29.80,29.67,16,7,0,0.04
2013-6-13,74,69,66,70,68,66,100,95,78,29.81,29.72,17,5,0,0.35
2013-6-14,74,68,65,70,67,63,100,96,75,29.88,29.79,12,2,0,0.11
2013-6-15,77,70,64,72,66,64,100,89,67,29.89,29.86,7,1,0,0.47
2013-6-16,82,74,66,82,73,65,100,95,71,29.95,29.88,14,2,0,0.10
2013-6-17,79,74,68,79,74,68,100,100,100,29.99,29.91,14,3,0,0.00
2013-6-18,78,74,69,78,74,69,100,100,100,30.02,29.97,16,6,0,0.00
2013-6-19,76,72,67,76,72,67,100,100,100,30.01,29.98,18,7,0,0.00
2013-6-20,76,72,68,76,72,68,100,100,100,30.06,29.98,21,7,0,0.00
2013-6-21,75,71,66,75,71,66,100,100,100,30.05,29.98,21,9,0,0.00
2013-6-22,76,71,65,69,64,58,100,79,57,30.00,29.91,17,8,0,0.00
2013-6-23,77,72,66,77,71,63,100,96,73,29.92,29.80,15,6,0,0.00
2013-6-24,80,72,67,79,70,66,100,92,64,29.82,29.77,16,6,0,0.00
2013-6-25,83,75,69,83,74,66,100,96,58,29.84,29.77,15,7,0,0.00
2013-6-26,78,74,70,78,74,70,100,100,100,29.93,29.84,25,11,0,0.00
2013-6-27,78,74,70,78,74,70,100,100,100,29.94,29.86,24,10,0,0.00
2013-6-28,74,72,71,74,72,71,100,100,100,29.90,29.86,18,5,0,0.00
2013-6-29,76,73,71,76,73,71,100,100,100,29.88,29.73,18,7,0,0.00
2013-6-30,80,73,69,80,73,69,100,100,100,29.73,29.64,16,3,0,0.06
2013-7-1,73,68,63,73,68,60,100,99,86,30.00,29.73,21,5,0,0.01
2013-7-2,72,69,64,72,69,64,100,100,100,30.04,30.00,15,5,0,0.00
2013-7-3,75,69,61,74,60,55,100,75,56,30.02,29.94,16,4,0,0.00
2013-7-4,75,70,62,68,62,56,100,75,61,29.95,29.91,19,4,0,0.00
2013-7-5,74,70,66,70,68,65,100,93,76,29.93,29.89,18,7,0,0.00
2013-7-6,76,72,69,73,70,68,100,94,79,29.93,29.87,21,10,0,0.00
2013-7-7,78,74,71,78,74,71,100,100,100,29.99,29.91,18,10,0,0.00
2013-7-8,78,74,71,78,74,71,100,100,100,30.03,29.98,20,10,0,0.00
2013-7-9,78,75,71,78,75,71,100,100,100,30.01,29.91,24,10,0,0.00
2013-7-10,77,74,72,77,74,72,100,100,100,29.91,29.75,19,10,0,0.00
2013-7-11,78,74,72,78,74,72,100,100,100,29.83,29.73,20,9,0,0.02
2013-7-12,79,74,70,79,74,70,100,100,100,29.91,29.83,18,8,0,0.00
2013-7-13,78,73,70,78,73,70,100,100,100,29.93,29.89,16,5,0,0.01
2013-7-14,79,74,70,79,74,70,100,100,100,29.92,29.89,18,5,0,0.01
2013-7-15,77,73,68,77,73,68,100,100,100,29.91,29.88,24,7,0,0.00
2013-7-16,76,73,68,76,73,68,100,100,100,29.97,29.90,24,9,0,0.00
2013-7-17,76,73,71,77,73,71,100,100,100,30.00,29.95,24,11,0,0.00
2013-7-18,76,73,70,76,73,70,100,100,100,30.03,29.97,27,11,0,0.01
2013-7-19,77,72,69,77,72,69,100,100,100,30.03,29.93,20,8,0,0.00
2013-7-20,78,73,68,78,73,68,100,100,100,29.93,29.84,20,8,0,0.00
2013-7-21,78,73,68,78,73,68,100,100,100,29.97,29.85,20,7,0,0.01
2013-7-22,74,71,68,74,71,68,100,100,100,29.97,29.91,19,9,0,0.00
2013-7-23,78,72,66,78,72,66,100,100,100,29.91,29.86,16,6,0,0.00
2013-7-24,84,77,67,84,77,67,100,100,100,29.92,29.87,14,4,0,0.00
2013-7-25,91,81,68,91,81,68,100,100,100,29.93,29.85,7,1,0,0.00
2013-7-26,83,77,70,83,77,70,100,100,100,29.90,29.87,17,4,0,0.00
2013-7-27,79,74,69,79,74,69,100,100,100,29.95,29.88,14,4,0,0.00
2013-7-28,79,74,67,79,72,63,100,93,64,30.05,29.95,17,5,0,0.00
2013-7-29,81,74,67,74,67,60,100,79,49,30.05,29.94,13,4,0,0.00
2013-7-30,89,81,69,88,60,52,100,51,29,29.94,29.76,14,3,0,0.00
2013-7-31,80,76,73,80,74,60,100,95,54,29.84,29.76,16,6,0,0.06
2013-8-1,76,72,68,74,71,68,100,98,81,29.96,29.84,17,5,0,0.58
2013-8-2,79,74,70,74,71,69,100,91,73,30.00,29.95,20,7,0,0.01
2013-8-3,80,75,70,74,67,60,100,78,53,30.00,29.96,16,5,0,0.00
2013-8-4,81,75,70,71,66,61,83,74,59,30.04,29.92,22,7,0,0.00
2013-8-5,78,74,70,69,65,60,87,75,55,30.05,29.98,22,9,0,0.00
2013-8-6,80,75,70,71,68,62,94,81,55,30.00,29.94,24,8,0,0.00
2013-8-7,78,75,71,73,69,62,100,83,60,30.00,29.92,24,7,0,0.00
2013-8-8,80,75,71,75,71,65,100,87,63,30.02,29.98,24,7,0,0.00
2013-8-9,81,76,72,75,73,69,100,90,68,29.98,29.87,19,9,0,0.00
2013-8-10,84,77,73,75,69,60,100,80,45,29.86,29.73,21,10,0,0.00
2013-8-11,79,76,72,74,71,67,100,85,69,29.84,29.72,26,9,0,0.00
2013-8-12,83,76,71,75,71,63,100,86,54,29.94,29.84,16,5,0,0.00
2013-8-13,83,76,71,76,70,61,100,84,48,29.95,29.90,17,5,0,0.01
2013-8-14,80,76,72,76,73,69,100,91,70,29.90,29.87,20,8,0,0.00
2013-8-15,81,76,73,75,74,72,100,91,75,29.96,29.87,21,9,0,0.00
2013-8-16,81,77,74,77,75,74,100,94,81,29.96,29.91,28,11,0,0.00
2013-8-17,78,76,73,75,72,66,100,87,73,29.98,29.91,28,14,0,0.00
2013-8-18,73,9,71,67,-80,-100,84,10,81,29.98,29.94,11,-879,0,0.00
2013-8-19,73,73,73,73,73,73,100,100,99,29.96,29.95,1,0,0,0.00
2013-8-20,81,52,74,77,14,-100,100,54,69,29.96,29.92,21,-333,0,0.00
2013-8-21,80,76,72,71,67,61,91,75,54,29.95,29.91,25,11,0,0.00
2013-8-22,80,76,73,72,67,63,94,75,60,29.92,29.87,24,10,0,0.00
2013-8-23,80,75,72,73,71,67,100,87,69,29.91,29.87,21,6,0,0.00
2013-8-24,80,75,71,74,72,68,100,89,68,29.92,29.88,17,5,0,0.00
2013-8-25,80,75,71,74,71,69,100,90,77,29.89,29.86,18,6,0,0.00
2013-8-26,81,75,70,74,71,61,100,87,51,29.89,29.85,15,6,0,0.00
2013-8-27,83,76,70,75,72,70,100,89,68,29.91,29.85,14,4,0,0.00
2013-8-28,83,76,71,75,73,71,100,91,69,29.89,29.81,12,5,0,0.00
2013-8-29,83,75,69,83,74,69,100,98,72,29.91,29.80,17,4,0,0.01
2013-8-30,76,73,70,73,69,65,100,88,68,29.97,29.89,22,8,0,0.00
2013-8-31,74,70,67,66,62,59,91,76,60,30.03,29.95,17,7,0,0.03
2013-9-1,75,70,65,75,70,59,100,98,76,30.07,30.02,18,5,0,0.00
2013-9-2,76,71,66,77,71,66,100,100,100,30.06,30.02,18,5,0,0.00
2013-9-3,82,73,64,82,71,59,100,95,55,30.05,29.92,13,2,0,0.00
2013-9-4,72,69,64,72,68,61,100,100,84,30.11,29.96,19,4,0,0.02
2013-9-5,72,66,58,72,66,58,100,100,81,30.13,30.01,13,3,0,0.06
2013-9-6,80,69,61,80,69,61,100,100,100,30.01,29.91,12,3,0,0.00
2013-9-7,76,70,64,76,70,64,100,100,100,30.07,29.97,14,5,0,0.00
2013-9-8,74,68,62,74,68,62,100,100,100,30.16,30.06,17,4,0,0.00
2013-9-9,72,68,63,73,68,63,100,100,100,30.18,30.12,14,5,0,0.00
2013-9-10,80,69,61,80,69,61,100,100,100,30.12,30.03,10,2,0,0.00
2013-9-11,81,73,63,81,73,63,100,100,100,30.04,29.93,11,2,0,0.00
2013-9-12,86,76,69,86,76,69,100,100,100,29.96,29.88,13,2,0,0.00
2013-9-13,87,77,72,87,77,72,100,100,100,29.89,29.84,13,3,0,0.00
2013-9-14,75,68,62,75,68,62,100,100,100,29.98,29.82,13,2,0,0.09
2013-9-15,78,70,63,78,70,63,100,100,100,29.97,29.85,11,2,0,0.00
2013-9-16,81,72,66,81,72,66,100,100,100,29.87,29.66,11,2,0,0.00
2013-9-17,77,72,68,77,72,68,100,100,100,29.67,29.61,7,2,0,0.00
2013-9-18,76,70,64,76,70,65,100,100,100,29.67,29.58,14,4,0,0.00
2013-9-19,80,70,60,80,70,60,100,100,100,29.75,29.66,10,2,0,0.01
2013-9-20,70,65,62,70,65,62,100,100,100,30.00,29.72,16,5,0,0.02
2013-9-21,69,64,60,69,64,60,100,100,100,30.06,29.99,14,3,0,0.00
2013-9-22,66,61,56,60,57,53,100,86,68,30.09,30.03,18,4,0,0.14
2013-9-23,69,64,58,69,63,54,100,96,75,30.06,29.86,11,2,0,0.06
2013-9-24,72,66,61,72,57,48,100,75,51,29.91,29.81,8,2,0,0.00
2013-9-25,77,70,62,77,63,50,100,81,48,30.01,29.91,8,2,0,0.00
2013-9-26,81,73,63,81,73,63,100,100,100,30.00,29.85,11,2,0,0.00
2013-9-27,79,69,62,79,69,62,100,100,100,29.99,29.83,16,4,0,0.10
2013-9-28,77,66,60,77,66,60,100,100,100,29.98,29.91,10,3,0,0.02
2013-9-29,79,68,61,79,68,61,100,100,100,29.97,29.88,8,2,0,0.00
2013-9-30,83,69,62,81,66,56,100,92,41,29.89,29.67,13,4,0,0.00
2013-10-1,74,67,55,74,67,55,100,100,100,29.66,29.51,13,2,0,0.17
2013-10-2,56,53,49,57,53,49,100,100,100,30.02,29.66,13,3,0,0.50
2013-10-3,51,48,44,51,48,41,100,99,87,30.27,30.02,16,3,0,0.15
2013-10-4,48,45,41,48,42,37,100,90,67,30.38,30.25,12,3,0,0.24
2013-10-5,53,48,43,41,38,36,91,70,58,30.37,30.30,13,2,0,0.03
2013-10-6,55,50,46,47,43,38,91,78,67,30.38,30.27,17,2,0,0.00
2013-10-7,59,53,48,45,43,41,85,69,53,30.42,30.36,16,4,0,0.00
2013-10-8,61,55,48,61,52,44,100,90,68,30.39,30.33,19,6,0,0.00
2013-10-9,64,58,54,62,55,51,100,92,65,30.33,30.14,11,4,0,0.00
2013-10-10,71,62,54,71,62,54,100,100,95,30.14,30.04,7,1,0,0.01
2013-10-11,77,68,59,77,68,59,100,100,100,30.16,30.08,5,1,0,0.00
2013-10-12,73,65,59,73,65,59,100,100,100,30.24,30.16,14,4,0,0.00
2013-10-13,63,60,58,63,60,58,100,100,100,30.25,30.19,13,5,0,0.00
2013-10-14,66,60,55,66,60,55,100,100,100,30.21,30.15,13,4,0,0.00
2013-10-15,74,63,55,74,63,55,100,100,100,30.16,29.95,5,1,0,0.00
2013-10-16,74,65,59,74,65,59,100,100,100,29.95,29.60,7,2,0,0.04
2013-10-17,65,59,55,65,59,55,100,100,100,29.62,29.40,17,4,0,0.66
2013-10-18,60,56,55,60,57,55,100,100,100,29.94,29.58,14,3,0,0.80
2013-10-19,60,57,54,60,57,54,100,100,100,30.40,29.94,8,2,0,0.00
2013-10-20,60,55,51,61,55,51,100,100,100,30.46,30.37,8,3,0,0.00
2013-10-21,67,58,48,67,58,49,100,100,100,30.36,30.19,6,1,0,0.00
2013-10-22,68,60,54,65,56,53,100,87,62,30.20,30.14,6,1,0,0.00
2013-10-23,64,59,56,60,58,56,100,95,78,30.31,30.20,14,6,0,0.00
2013-10-24,61,57,55,58,54,50,100,91,76,30.31,30.25,16,6,0,0.00
2013-10-25,60,56,54,51,50,50,90,82,73,30.24,30.19,14,6,0,0.00
2013-10-26,61,57,54,55,53,50,99,87,70,30.24,30.19,14,4,0,0.00
2013-10-27,63,56,54,55,54,52,100,91,74,30.21,30.10,8,2,0,0.00
2013-10-28,66,59,54,66,59,54,100,100,86,30.11,30.04,7,3,0,0.01
2013-10-29,72,61,56,72,60,42,100,96,37,30.07,30.01,6,1,0,0.01
2013-10-30,60,56,54,60,56,54,100,100,90,30.12,30.04,14,5,0,0.00
2013-10-31,60,57,55,60,57,55,100,100,100,30.27,30.12,17,7,0,0.00
2013-11-1,60,58,56,60,58,56,100,100,100,30.26,30.17,18,7,0,0.00
2013-11-2,63,58,57,63,58,57,100,100,100,30.17,30.09,8,2,0,0.00
2013-11-3,62,58,57,62,58,57,100,100,100,30.09,30.00,8,2,0,0.00
2013-11-4,69,62,57,69,62,57,100,100,100,30.06,29.96,12,1,0,0.00
2013-11-5,71,65,57,71,64,53,100,98,64,29.97,29.83,13,3,0,0.00
2013-11-6,74,66,62,74,59,47,100,81,41,29.82,29.73,8,2,0,0.00
2013-11-7,64,55,50,65,55,50,100,99,74,30.14,29.75,18,1,0,0.40
2013-11-8,59,53,48,59,53,49,100,100,100,30.21,30.14,12,2,0,0.01
2013-11-9,64,55,50,60,50,39,100,85,51,30.17,30.02,9,2,0,0.00
2013-11-10,65,58,50,65,56,46,100,96,54,30.02,29.90,6,2,0,0.00
2013-11-11,70,62,56,70,62,56,100,100,100,30.10,29.89,6,1,0,0.00
2013-11-12,68,61,56,68,61,56,100,100,100,30.21,30.09,15,4,0,0.00
2013-11-13,56,54,53,56,53,50,100,96,86,30.21,30.11,14,7,0,0.00
2013-11-14,55,54,52,53,51,49,97,89,84,30.11,30.04,17,8,0,0.00
2013-11-15,57,54,51,54,52,48,100,93,81,30.22,30.01,20,10,0,0.01
2013-11-16,52,51,49,51,46,42,98,82,73,30.26,30.20,15,6,0,0.00
2013-11-17,53,49,47,53,49,42,100,98,75,30.23,30.17,12,3,0,0.00
2013-11-18,55,50,45,55,50,45,100,100,100,30.22,30.17,11,3,0,0.00
2013-11-19,60,53,49,60,53,49,100,100,100,30.19,30.07,10,2,0,0.00
2013-11-20,68,61,53,68,61,53,100,100,100,30.07,29.91,7,2,0,0.03
2013-11-21,68,63,58,68,63,58,100,100,100,29.91,29.82,11,2,0,0.01
2013-11-22,67,61,57,62,56,52,100,84,61,29.83,29.72,14,2,0,0.13
2013-11-23,59,57,55,55,54,54,99,91,85,29.86,29.81,5,0,0,0.00
2013-11-25,59,57,56,55,54,52,95,87,81,29.78,29.72,14,2,0,0.21
2013-11-26,57,54,53,55,54,53,100,98,89,29.85,29.75,5,0,0,0.17
2013-11-27,58,53,51,58,53,51,100,100,100,30.15,29.85,10,3,0,0.13
2013-11-28,51,44,42,51,44,42,100,100,100,30.32,30.15,17,4,0,0.06
2013-11-29,49,43,40,49,43,40,100,100,100,30.21,30.09,14,2,0,0.01
2013-11-30,52,44,37,53,44,37,100,100,100,30.24,30.19,9,0,0,0.00
2013-12-1,56,50,45,56,50,45,100,100,100,30.23,30.14,10,2,0,0.00
2013-12-2,52,49,44,53,49,45,100,100,100,30.33,30.08,17,5,0,0.25
2013-12-3,47,42,40,47,42,40,100,100,100,30.49,30.34,25,11,0,0.00
2013-12-4,46,43,41,46,43,41,100,100,100,30.35,30.10,22,8,0,0.00
2013-12-5,50,46,43,50,46,43,100,100,100,30.14,30.03,8,1,0,0.00
2013-12-6,52,47,41,52,47,41,100,100,100,30.12,29.82,10,1,0,0.00
2013-12-7,51,40,36,51,40,36,100,100,100,30.16,29.86,17,3,0,0.59
2013-12-8,42,38,34,43,33,8,100,86,35,30.38,30.17,18,4,0,0.00
2013-12-9,48,44,38,45,37,31,100,79,56,30.40,30.08,12,2,0,0.00
2013-12-10,48,39,31,43,38,30,100,93,76,30.41,30.05,24,8,0,0.26
2013-12-11,34,32,30,34,32,30,100,99,90,30.48,30.40,27,10,0,0.07
2013-12-12,35,32,31,34,32,31,100,99,92,30.42,30.25,7,0,0,0.20
2013-12-13,33,33,33,33,33,33,100,100,100,30.25,30.23,0,0,0,0.00
2013-12-14,44,42,39,44,42,39,100,100,100,30.41,30.26,8,2,0,0.02
2013-12-15,50,44,40,50,42,36,100,95,75,30.42,30.38,5,0,0,0.01
2013-12-16,44,42,40,44,40,36,100,95,84,30.50,30.39,13,2,0,0.13
2013-12-17,47,44,41,44,42,39,100,92,75,30.52,30.44,17,6,0,0.24
2013-12-18,47,45,43,44,40,37,97,84,72,30.43,30.30,14,5,0,0.00
2013-12-19,47,43,39,38,36,32,82,75,65,30.32,30.26,7,1,0,0.00
2013-12-20,50,43,38,39,35,32,86,73,57,30.46,30.31,7,1,0,0.00
2013-12-21,50,45,41,43,41,39,95,85,73,30.58,30.45,7,1,0,0.00
2013-12-22,45,42,40,43,41,39,100,98,90,30.59,30.55,6,1,0,0.01
2013-12-28,58,50,46,56,42,-100,100,80,45,30.03,29.97,12,2,0,0.00
2013-12-29,49,47,46,49,47,46,100,100,100,30.14,29.98,11,4,0,0.00
2013-12-30,47,45,43,47,46,43,100,100,100,30.25,30.12,20,7,0,0.00
2013-12-31,43,41,40,43,41,39,100,98,90,30.30,30.25,13,4,0,0.00
2014-1-1,44,43,42,44,43,42,100,100,100,30.25,30.20,9,4,0,0.00
2014-1-2,48,44,41,48,44,41,100,100,100,30.20,30.13,10,2,0,0.00